SHT22A EGLL-EGJB

Flight info

Callsign SHT22A
Flight time N/A
Altitude 21000
Route GASGU N866 SAM/N0382F200 N63 LELNA
Aircraft A319/M-SDE3FGHIRWY/LB1

Departure

Time N/A
Airport London Heathrow Airport (EGLL)

Arrival

Time 2026-04-20 00:36
Airport Guernsey Airport (EGJB)
Time Latitude Longitude Altitude Speed Heading
2026-04-20 00:19 50.73395 -1.52129 21321 ft 388 kts 212°
2026-04-20 00:19 50.68561 -1.55965 21320 ft 388 kts 212°
2026-04-20 00:20 50.63727 -1.59787 21309 ft 388 kts 212°
2026-04-20 00:20 50.58893 -1.63593 21295 ft 387 kts 212°
2026-04-20 00:20 50.54054 -1.67392 21300 ft 387 kts 212°
2026-04-20 00:20 50.49292 -1.71136 21305 ft 387 kts 212°
2026-04-20 00:21 50.44457 -1.74924 21307 ft 388 kts 212°
2026-04-20 00:21 50.39602 -1.78699 21286 ft 388 kts 212°
2026-04-20 00:21 50.34765 -1.82455 21297 ft 388 kts 212°
2026-04-20 00:21 50.31579 -1.84928 21063 ft 381 kts 212°
2026-04-20 00:22 50.25366 -1.89759 20377 ft 374 kts 212°
2026-04-20 00:22 50.20717 -1.93373 19876 ft 371 kts 212°
2026-04-20 00:22 50.16089 -1.96950 19373 ft 368 kts 212°
2026-04-20 00:22 50.13052 -1.99291 19056 ft 366 kts 212°
2026-04-20 00:23 50.08497 -2.02788 18576 ft 363 kts 212°
2026-04-20 00:23 50.02534 -2.07349 17539 ft 355 kts 212°
2026-04-20 00:23 49.98292 -2.11020 16600 ft 341 kts 223°
2026-04-20 00:23 49.96032 -2.14492 15663 ft 340 kts 234°
2026-04-20 00:24 49.92943 -2.19952 14771 ft 332 kts 233°
2026-04-20 00:24 49.89939 -2.25183 13851 ft 326 kts 232°
2026-04-20 00:24 49.86924 -2.30502 12840 ft 326 kts 232°
2026-04-20 00:24 49.83974 -2.35786 11820 ft 322 kts 232°
2026-04-20 00:25 49.81074 -2.41053 10806 ft 320 kts 232°
2026-04-20 00:25 49.78244 -2.46244 10200 ft 305 kts 232°
2026-04-20 00:25 49.75598 -2.51091 9854 ft 286 kts 232°
2026-04-20 00:25 49.74044 -2.53925 9433 ft 283 kts 232°
2026-04-20 00:26 49.72786 -2.56213 9075 ft 282 kts 232°
2026-04-20 00:26 49.71517 -2.58535 8703 ft 281 kts 232°
2026-04-20 00:26 49.70262 -2.60862 8338 ft 281 kts 232°
2026-04-20 00:26 49.69019 -2.63190 7968 ft 280 kts 232°
2026-04-20 00:27 49.67797 -2.65480 7683 ft 277 kts 232°
2026-04-20 00:27 49.66589 -2.67734 7555 ft 268 kts 232°
2026-04-20 00:27 49.65417 -2.69931 7391 ft 261 kts 232°
2026-04-20 00:27 49.64263 -2.72109 7065 ft 262 kts 232°
2026-04-20 00:28 49.63133 -2.74271 6758 ft 262 kts 232°
2026-04-20 00:28 49.61990 -2.76463 6430 ft 262 kts 232°
2026-04-20 00:28 49.60847 -2.78665 6070 ft 263 kts 232°
2026-04-20 00:28 49.59726 -2.80847 5759 ft 261 kts 232°
2026-04-20 00:29 49.58606 -2.83054 5460 ft 261 kts 232°
2026-04-20 00:29 49.57501 -2.85254 5162 ft 259 kts 232°
2026-04-20 00:29 49.56214 -2.87153 4816 ft 257 kts 207°
2026-04-20 00:29 49.54528 -2.87850 4560 ft 247 kts 178°
2026-04-20 00:30 49.52840 -2.87716 4421 ft 237 kts 172°
2026-04-20 00:30 49.51213 -2.87503 4111 ft 233 kts 171°
2026-04-20 00:30 49.49617 -2.87290 3759 ft 231 kts 171°
2026-04-20 00:30 49.48018 -2.87070 3418 ft 229 kts 171°
2026-04-20 00:31 49.46467 -2.86880 3272 ft 218 kts 171°
2026-04-20 00:31 49.45020 -2.86573 3182 ft 201 kts 157°
2026-04-20 00:31 49.43874 -2.85545 3087 ft 185 kts 133°
2026-04-20 00:31 49.43145 -2.83997 3020 ft 176 kts 111°
2026-04-20 00:32 49.42870 -2.82221 2950 ft 173 kts 91°
2026-04-20 00:32 49.42914 -2.80363 2763 ft 171 kts 86°
2026-04-20 00:32 49.42968 -2.78568 2548 ft 168 kts 86°
2026-04-20 00:32 49.43020 -2.76811 2328 ft 161 kts 86°
2026-04-20 00:33 49.43070 -2.75115 2115 ft 155 kts 86°
2026-04-20 00:33 49.43116 -2.73519 1907 ft 147 kts 86°
2026-04-20 00:33 49.43160 -2.72006 1712 ft 136 kts 85°
2026-04-20 00:33 49.43200 -2.70604 1533 ft 128 kts 85°
2026-04-20 00:34 49.43239 -2.69245 1363 ft 126 kts 84°
2026-04-20 00:34 49.43277 -2.67903 1184 ft 126 kts 85°
2026-04-20 00:34 49.43317 -2.66550 1002 ft 127 kts 84°
2026-04-20 00:34 49.43358 -2.65218 844 ft 125 kts 84°
2026-04-20 00:35 49.43394 -2.63876 641 ft 126 kts 84°
2026-04-20 00:35 49.43432 -2.62522 491 ft 126 kts 85°
2026-04-20 00:35 49.43469 -2.61177 331 ft 124 kts 86°
2026-04-20 00:35 49.43502 -2.60047 316 ft 86 kts 88°
2026-04-20 00:36 49.43516 -2.59494 333 ft 23 kts 88°
2026-04-20 00:36 49.43517 -2.59246 334 ft 17 kts 110°
2026-04-20 00:36 49.43397 -2.59204 332 ft 18 kts 201°
2026-04-20 00:36 49.43370 -2.59319 334 ft 9 kts 264°
2026-04-20 00:37 49.43364 -2.59424 332 ft 11 kts 264°
2026-04-20 00:37 49.43363 -2.59557 331 ft 15 kts 269°
2026-04-20 00:37 49.43362 -2.59644 330 ft 0 kts 269°
2026-04-20 00:38 49.43361 -2.59665 329 ft 4 kts 269°
2026-04-20 00:38 49.43343 -2.59690 328 ft 3 kts 179°
2026-04-20 00:38 49.43325 -2.59688 329 ft 2 kts 176°
2026-04-20 00:38 49.43311 -2.59687 329 ft 3 kts 178°
2026-04-20 00:39 49.43290 -2.59686 328 ft 3 kts 178°
2026-04-20 00:39 49.43268 -2.59685 328 ft 3 kts 177°
2026-04-20 00:39 49.43255 -2.59684 328 ft 1 kts 178°
2026-04-20 00:39 49.43254 -2.59684 328 ft 0 kts 178°